| time (UTC) | temp C | wind direction | speed KPH | gust KPH | rain 1hr cm | rain 24hr cm | rain mn cm | humidity % | barometer mb |
| 20260504214512 | 22 | 263 | 16.1 | 27.4 | 0.00 | 0.00 | 0.00 | 35 | 1009.1 |
| 20260504214010 | 22 | 359 | 11.3 | 32.2 | 0.00 | 0.00 | 0.00 | 35 | 1009.1 |
| 20260504213508 | 22 | 275 | 12.9 | 32.2 | 0.00 | 0.00 | 0.00 | 35 | 1009.2 |
| 20260504213026 | 22 | 230 | 19.3 | 32.2 | 0.00 | 0.00 | 0.00 | 35 | 1009.2 |
| 20260504212507 | 22 | 262 | 16.1 | 32.2 | 0.00 | 0.00 | 0.00 | 34 | 1009.2 |
| 20260504212007 | 22 | 256 | 9.7 | 22.5 | 0.00 | 0.00 | 0.00 | 35 | 1009.1 |
| 20260504211514 | 23 | 270 | 8.0 | 25.7 | 0.00 | 0.00 | 0.00 | 35 | 1009.2 |
| 20260504211006 | 22 | 208 | 11.3 | 22.5 | 0.00 | 0.00 | 0.00 | 35 | 1009.2 |
| 20260504210508 | 22 | 247 | 9.7 | 22.5 | 0.00 | 0.00 | 0.00 | 35 | 1009.1 |
| 20260504210008 | 22 | 214 | 16.1 | 29.0 | 0.00 | 0.00 | 0.00 | 34 | 1009.1 |
| 20260504205505 | 22 | 226 | 16.1 | 29.0 | 0.00 | 0.00 | 0.00 | 35 | 1009.1 |
| 20260504205006 | 22 | 230 | 12.9 | 38.6 | 0.00 | 0.00 | 0.00 | 35 | 1009.0 |
| 20260504204504 | 22 | 230 | 16.1 | 38.6 | 0.00 | 0.00 | 0.00 | 34 | 1009.0 |
| 20260504204003 | 22 | 205 | 14.5 | 27.4 | 0.00 | 0.00 | 0.00 | 35 | 1009.1 |
| 20260504203508 | 22 | 199 | 11.3 | 38.6 | 0.00 | 0.00 | 0.00 | 35 | 1009.1 |
| 20260504203007 | 22 | 224 | 16.1 | 38.6 | 0.00 | 0.00 | 0.00 | 35 | 1009.2 |
| 20260504202501 | 22 | 248 | 17.7 | 33.8 | 0.00 | 0.00 | 0.00 | 35 | 1009.3 |
| 20260504202003 | 22 | 359 | 16.1 | 33.8 | 0.00 | 0.00 | 0.00 | 35 | 1009.3 |
| 20260504201504 | 22 | 229 | 6.4 | 25.7 | 0.00 | 0.00 | 0.00 | 35 | 1009.1 |
| 20260504201002 | 22 | 263 | 12.9 | 24.1 | 0.00 | 0.00 | 0.00 | 34 | 1009.3 |
| 20260504200600 | 22 | 359 | 12.9 | 24.1 | 0.00 | 0.00 | 0.00 | 35 | 1009.3 |
| 20260504200100 | 22 | 218 | 16.1 | 29.0 | 0.00 | 0.00 | 0.00 | 36 | 1009.2 |
| 20260504195602 | 22 | 201 | 14.5 | 29.0 | 0.00 | 0.00 | 0.00 | 35 | 1009.3 |
| 20260504195059 | 22 | 359 | 8.0 | 32.2 | 0.00 | 0.00 | 0.00 | 36 | 1009.4 |
| 20260504194608 | 22 | 359 | 14.5 | 32.2 | 0.00 | 0.00 | 0.00 | 36 | 1009.4 |
| 20260504194058 | 22 | 233 | 12.9 | 27.4 | 0.00 | 0.00 | 0.00 | 37 | 1009.4 |
| 20260504193558 | 22 | 324 | 12.9 | 24.1 | 0.00 | 0.00 | 0.00 | 36 | 1009.4 |
| 20260504193109 | 22 | 235 | 14.5 | 22.5 | 0.00 | 0.00 | 0.00 | 37 | 1009.3 |
| 20260504192555 | 22 | 316 | 12.9 | 33.8 | 0.00 | 0.00 | 0.00 | 36 | 1009.4 |
| 20260504192055 | 22 | 305 | 17.7 | 37.0 | 0.00 | 0.00 | 0.00 | 36 | 1009.5 |
| 20260504191555 | 22 | 268 | 20.9 | 37.0 | 0.00 | 0.00 | 0.00 | 35 | 1009.8 |
| 20260504191054 | 22 | 210 | 9.7 | 25.7 | 0.00 | 0.00 | 0.00 | 35 | 1009.6 |
| 20260504190557 | 22 | 231 | 16.1 | 27.4 | 0.00 | 0.00 | 0.00 | 35 | 1009.7 |
| 20260504190113 | 22 | 359 | 6.4 | 19.3 | 0.00 | 0.00 | 0.00 | 36 | 1009.7 |
| 20260504185553 | 22 | 318 | 6.4 | 30.6 | 0.00 | 0.00 | 0.00 | 37 | 1009.7 |
| 20260504185051 | 22 | 18 | 12.9 | 30.6 | 0.00 | 0.00 | 0.00 | 37 | 1009.8 |
| 20260504184559 | 22 | 217 | 16.1 | 37.0 | 0.00 | 0.00 | 0.00 | 36 | 1009.9 |
| 20260504184050 | 21 | 185 | 17.7 | 37.0 | 0.00 | 0.00 | 0.00 | 36 | 1010.3 |
| 20260504183552 | 21 | 250 | 17.7 | 37.0 | 0.00 | 0.00 | 0.00 | 37 | 1010.3 |
| 20260504183048 | 21 | 359 | 14.5 | 37.0 | 0.00 | 0.00 | 0.00 | 36 | 1010.2 |
| 20260504182550 | 21 | 359 | 17.7 | 38.6 | 0.00 | 0.00 | 0.00 | 35 | 1010.4 |
| 20260504182046 | 21 | 359 | 17.7 | 29.0 | 0.00 | 0.00 | 0.00 | 38 | 1010.5 |
| 20260504181545 | 21 | 305 | 12.9 | 25.7 | 0.00 | 0.00 | 0.00 | 36 | 1010.5 |
| 20260504181044 | 21 | 230 | 12.9 | 24.1 | 0.00 | 0.00 | 0.00 | 38 | 1010.7 |
| 20260504180546 | 21 | 264 | 12.9 | 32.2 | 0.00 | 0.00 | 0.00 | 36 | 1010.7 |
| 20260504180044 | 21 | 231 | 12.9 | 32.2 | 0.00 | 0.00 | 0.00 | 36 | 1010.8 |
| 20260504175541 | 21 | 359 | 12.9 | 33.8 | 0.00 | 0.00 | 0.00 | 37 | 1010.9 |
| 20260504175043 | 21 | 241 | 16.1 | 33.8 | 0.00 | 0.00 | 0.00 | 37 | 1011.0 |
| 20260504174540 | 21 | 285 | 6.4 | 33.8 | 0.00 | 0.00 | 0.00 | 38 | 1011.0 |
| 20260504174040 | 21 | 211 | 16.1 | 37.0 | 0.00 | 0.00 | 0.00 | 38 | 1011.1 |
| 20260504173539 | 21 | 241 | 19.3 | 37.0 | 0.00 | 0.00 | 0.00 | 37 | 1011.0 |
| 20260504173047 | 21 | 264 | 16.1 | 27.4 | 0.00 | 0.00 | 0.00 | 38 | 1010.9 |
| 20260504172537 | 20 | 266 | 17.7 | 29.0 | 0.00 | 0.00 | 0.00 | 38 | 1011.1 |
| 20260504172037 | 20 | 359 | 17.7 | 29.0 | 0.00 | 0.00 | 0.00 | 38 | 1011.1 |
| 20260504171536 | 20 | 233 | 16.1 | 35.4 | 0.00 | 0.00 | 0.00 | 38 | 1011.1 |
| 20260504171035 | 20 | 279 | 19.3 | 35.4 | 0.00 | 0.00 | 0.00 | 39 | 1011.2 |
| 20260504170534 | 20 | 359 | 16.1 | 30.6 | 0.00 | 0.00 | 0.00 | 39 | 1011.5 |
| 20260504151018 | 18 | 208 | 16.1 | 30.6 | 0.00 | 0.00 | 0.00 | 41 | 1012.9 |
| 20260504150517 | 18 | 258 | 8.0 | 25.7 | 0.00 | 0.00 | 0.00 | 41 | 1012.9 |
| 20260504141011 | 17 | 242 | 19.3 | 35.4 | 0.00 | 0.00 | 0.00 | 44 | 1013.1 |
| 20260504140508 | 17 | 247 | 16.1 | 32.2 | 0.00 | 0.00 | 0.00 | 46 | 1013.2 |
| 20260504130555 | 15 | 269 | 8.0 | 19.3 | 0.00 | 0.00 | 0.00 | 56 | 1014.0 |
| 20260504110534 | 9 | 359 | 9.7 | 16.1 | 0.00 | 0.00 | 0.00 | 68 | 1014.2 |
| 20260504100529 | 8 | 247 | 6.4 | 16.1 | 0.00 | 0.00 | 0.00 | 65 | 1014.1 |
| 20260504081514 | 8 | 359 | 8.0 | 12.9 | 0.00 | 0.00 | 0.00 | 58 | 1013.6 |
| 20260504081014 | 8 | 256 | 6.4 | 14.5 | 0.00 | 0.00 | 0.00 | 58 | 1013.6 |
| 20260504080514 | 8 | 260 | 4.8 | 12.9 | 0.00 | 0.00 | 0.00 | 58 | 1013.6 |
| 20260504050550 | 10 | 245 | 4.8 | 9.7 | 0.00 | 0.00 | 0.00 | 52 | 1013.2 |
| 20260504045550 | 10 | 359 | 4.8 | 12.9 | 0.00 | 0.00 | 0.00 | 51 | 1013.2 |
| 20260504045048 | 10 | 359 | 4.8 | 12.9 | 0.00 | 0.00 | 0.00 | 51 | 1013.2 |
| 20260504044558 | 10 | 262 | 4.8 | 12.9 | 0.00 | 0.00 | 0.00 | 51 | 1013.1 |
| 20260504044047 | 10 | 231 | 3.2 | 11.3 | 0.00 | 0.00 | 0.00 | 51 | 1013.2 |
| 20260504043545 | 10 | 236 | 4.8 | 14.5 | 0.00 | 0.00 | 0.00 | 51 | 1013.0 |
| 20260504043046 | 10 | 271 | 4.8 | 14.5 | 0.00 | 0.00 | 0.00 | 51 | 1013.1 |
| 20260504042542 | 10 | 261 | 6.4 | 12.9 | 0.00 | 0.00 | 0.00 | 51 | 1013.0 |
| 20260504042042 | 10 | 268 | 3.2 | 12.9 | 0.00 | 0.00 | 0.00 | 51 | 1012.9 |
| 20260504041541 | 10 | 241 | 6.4 | 12.9 | 0.00 | 0.00 | 0.00 | 50 | 1012.9 |
| 20260504041041 | 11 | 359 | 4.8 | 8.0 | 0.00 | 0.00 | 0.00 | 50 | 1012.8 |
| 20260504040541 | 11 | 280 | 3.2 | 8.0 | 0.00 | 0.00 | 0.00 | 50 | 1012.8 |
| 20260504040038 | 11 | 359 | 3.2 | 8.0 | 0.00 | 0.00 | 0.00 | 49 | 1012.7 |
| 20260504035538 | 11 | 235 | 4.8 | 11.3 | 0.00 | 0.00 | 0.00 | 49 | 1012.8 |
| 20260504035037 | 11 | 253 | 6.4 | 11.3 | 0.00 | 0.00 | 0.00 | 49 | 1012.7 |
| 20260504034545 | 11 | 359 | 1.6 | 8.0 | 0.00 | 0.00 | 0.00 | 49 | 1012.7 |
| 20260504034036 | 11 | 264 | 4.8 | 11.3 | 0.00 | 0.00 | 0.00 | 48 | 1012.7 |
| 20260504033537 | 11 | 281 | 3.2 | 9.7 | 0.00 | 0.00 | 0.00 | 48 | 1012.7 |
| 20260504033049 | 11 | 359 | 3.2 | 9.7 | 0.00 | 0.00 | 0.00 | 47 | 1012.7 |
| 20260504032536 | 11 | 253 | 3.2 | 9.7 | 0.00 | 0.00 | 0.00 | 47 | 1012.7 |
| 20260504032036 | 11 | 260 | 3.2 | 6.4 | 0.00 | 0.00 | 0.00 | 47 | 1012.6 |
| 20260504031536 | 11 | 247 | 3.2 | 9.7 | 0.00 | 0.00 | 0.00 | 46 | 1012.5 |
| 20260504031036 | 11 | 359 | 1.6 | 11.3 | 0.00 | 0.00 | 0.00 | 46 | 1012.6 |
| 20260504030538 | 11 | 247 | 3.2 | 8.0 | 0.00 | 0.00 | 0.00 | 46 | 1012.5 |
| 20260504030035 | 11 | 359 | 3.2 | 12.9 | 0.00 | 0.00 | 0.00 | 45 | 1012.5 |
| 20260504025535 | 12 | 265 | 3.2 | 12.9 | 0.00 | 0.00 | 0.00 | 45 | 1012.5 |
| 20260504025035 | 12 | 256 | 6.4 | 12.9 | 0.00 | 0.00 | 0.00 | 45 | 1012.5 |
| 20260504024535 | 12 | 359 | 6.4 | 12.9 | 0.00 | 0.00 | 0.00 | 45 | 1012.5 |
| 20260504024035 | 12 | 252 | 4.8 | 12.9 | 0.00 | 0.00 | 0.00 | 44 | 1012.6 |
| 20260504023535 | 12 | 359 | 4.8 | 12.9 | 0.00 | 0.00 | 0.00 | 44 | 1012.6 |
| 20260504023035 | 12 | 247 | 4.8 | 12.9 | 0.00 | 0.00 | 0.00 | 44 | 1012.6 |
| 20260504022534 | 12 | 220 | 6.4 | 12.9 | 0.00 | 0.00 | 0.00 | 43 | 1012.5 |
| 20260504022035 | 12 | 262 | 4.8 | 14.5 | 0.00 | 0.00 | 0.00 | 43 | 1012.5 |
| 20260504021536 | 12 | 359 | 1.6 | 9.7 | 0.00 | 0.00 | 0.00 | 43 | 1012.6 |
| 20260504021036 | 12 | 229 | 4.8 | 9.7 | 0.00 | 0.00 | 0.00 | 43 | 1012.6 |
| 20260504020536 | 12 | 269 | 4.8 | 11.3 | 0.00 | 0.00 | 0.00 | 42 | 1012.6 |
| 20260504020035 | 12 | 268 | 3.2 | 11.3 | 0.00 | 0.00 | 0.00 | 42 | 1012.7 |
| 20260504015533 | 12 | 256 | 3.2 | 11.3 | 0.00 | 0.00 | 0.00 | 42 | 1012.6 |
| 20260504015032 | 12 | 235 | 3.2 | 11.3 | 0.00 | 0.00 | 0.00 | 42 | 1012.5 |
| 20260504014535 | 12 | 269 | 6.4 | 12.9 | 0.00 | 0.00 | 0.00 | 41 | 1012.6 |
| 20260504014032 | 12 | 284 | 3.2 | 12.9 | 0.00 | 0.00 | 0.00 | 41 | 1012.4 |
| 20260504013532 | 12 | 270 | 6.4 | 12.9 | 0.00 | 0.00 | 0.00 | 41 | 1012.4 |
| 20260504013037 | 12 | 248 | 4.8 | 8.0 | 0.00 | 0.00 | 0.00 | 41 | 1012.4 |
| 20260504012532 | 12 | 359 | 1.6 | 9.7 | 0.00 | 0.00 | 0.00 | 41 | 1012.3 |
| 20260504012033 | 12 | 266 | 4.8 | 9.7 | 0.00 | 0.00 | 0.00 | 41 | 1012.3 |
| 20260504011532 | 12 | 255 | 4.8 | 8.0 | 0.00 | 0.00 | 0.00 | 40 | 1012.3 |
| 20260504011031 | 13 | 262 | 3.2 | 9.7 | 0.00 | 0.00 | 0.00 | 40 | 1012.2 |
| 20260504010531 | 13 | 260 | 4.8 | 9.7 | 0.00 | 0.00 | 0.00 | 40 | 1012.2 |
| 20260504010043 | 13 | 244 | 3.2 | 9.7 | 0.00 | 0.00 | 0.00 | 40 | 1012.0 |
| 20260504005530 | 13 | 249 | 3.2 | 6.4 | 0.00 | 0.00 | 0.00 | 39 | 1012.0 |
| 20260504005031 | 13 | 239 | 3.2 | 6.4 | 0.00 | 0.00 | 0.00 | 39 | 1012.0 |
| 20260504004531 | 13 | 261 | 3.2 | 9.7 | 0.00 | 0.00 | 0.00 | 38 | 1011.8 |
| 20260504004031 | 13 | 249 | 3.2 | 9.7 | 0.00 | 0.00 | 0.00 | 38 | 1011.8 |
| 20260504003531 | 13 | 272 | 3.2 | 8.0 | 0.00 | 0.00 | 0.00 | 37 | 1011.8 |
| 20260504003030 | 13 | 259 | 1.6 | 8.0 | 0.00 | 0.00 | 0.00 | 37 | 1011.6 |
| 20260504002531 | 13 | 256 | 3.2 | 8.0 | 0.00 | 0.00 | 0.00 | 37 | 1011.5 |
| 20260504002030 | 13 | 272 | 4.8 | 8.0 | 0.00 | 0.00 | 0.00 | 36 | 1011.4 |
| 20260504001530 | 14 | 268 | 1.6 | 6.4 | 0.00 | 0.00 | 0.00 | 36 | 1011.3 |
| 20260504001030 | 14 | 243 | 3.2 | 8.0 | 0.00 | 0.00 | 0.00 | 35 | 1011.3 |
| 20260504000532 | 14 | 235 | 3.2 | 8.0 | 0.00 | 0.00 | 0.00 | 35 | 1011.2 |
| 20260504000029 | 14 | 359 | 3.2 | 9.7 | 0.00 | 0.00 | 0.00 | 34 | 1011.2 |
| 20260503235529 | 15 | 291 | 4.8 | 12.9 | 0.00 | 0.00 | 0.00 | 34 | 1011.1 |
| 20260503235029 | 15 | 276 | 4.8 | 14.5 | 0.00 | 0.00 | 0.00 | 33 | 1011.1 |
| 20260503234528 | 15 | 359 | 6.4 | 20.9 | 0.00 | 0.00 | 0.00 | 33 | 1011.1 |
| 20260503234029 | 15 | 297 | 8.0 | 17.7 | 0.00 | 0.00 | 0.00 | 32 | 1011.0 |
| 20260503233528 | 15 | 294 | 3.2 | 17.7 | 0.00 | 0.00 | 0.00 | 33 | 1011.1 |
| 20260503233029 | 15 | 334 | 8.0 | 17.7 | 0.00 | 0.00 | 0.00 | 32 | 1010.9 |
| 20260503232528 | 15 | 241 | 6.4 | 27.4 | 0.00 | 0.00 | 0.00 | 32 | 1010.9 |
| 20260503232028 | 15 | 245 | 9.7 | 20.9 | 0.00 | 0.00 | 0.00 | 32 | 1010.9 |
| 20260503231528 | 15 | 245 | 9.7 | 22.5 | 0.00 | 0.00 | 0.00 | 31 | 1010.8 |
| 20260503231028 | 15 | 324 | 8.0 | 24.1 | 0.00 | 0.00 | 0.00 | 32 | 1010.8 |
| 20260503230528 | 15 | 359 | 8.0 | 25.7 | 0.00 | 0.00 | 0.00 | 32 | 1010.8 |
| 20260503230028 | 15 | 359 | 12.9 | 25.7 | 0.00 | 0.00 | 0.00 | 31 | 1010.7 |
| 20260503225527 | 16 | 290 | 8.0 | 22.5 | 0.00 | 0.00 | 0.00 | 32 | 1010.7 |
| 20260503225027 | 16 | 270 | 9.7 | 19.3 | 0.00 | 0.00 | 0.00 | 32 | 1010.6 |
| 20260503224526 | 16 | 359 | 6.4 | 22.5 | 0.00 | 0.00 | 0.00 | 31 | 1010.7 |
| 20260503224027 | 16 | 337 | 11.3 | 20.9 | 0.00 | 0.00 | 0.00 | 30 | 1010.8 |
| 20260503223525 | 16 | 253 | 8.0 | 22.5 | 0.00 | 0.00 | 0.00 | 30 | 1010.6 |
| 20260503223026 | 16 | 308 | 9.7 | 22.5 | 0.00 | 0.00 | 0.00 | 30 | 1010.6 |
| 20260503222525 | 16 | 334 | 9.7 | 29.0 | 0.00 | 0.00 | 0.00 | 29 | 1010.7 |
| 20260503222026 | 16 | 335 | 16.1 | 29.0 | 0.00 | 0.00 | 0.00 | 29 | 1010.6 |
| 20260503221532 | 16 | 359 | 14.5 | 22.5 | 0.00 | 0.00 | 0.00 | 29 | 1010.5 |
| 20260503221026 | 16 | 279 | 9.7 | 19.3 | 0.00 | 0.00 | 0.00 | 30 | 1010.6 |
| 20260503220527 | 16 | 286 | 9.7 | 25.7 | 0.00 | 0.00 | 0.00 | 29 | 1010.5 |
| 20260503220025 | 16 | 313 | 9.7 | 25.7 | 0.00 | 0.00 | 0.00 | 29 | 1010.6 |
| 20260503215523 | 16 | 262 | 8.0 | 22.5 | 0.00 | 0.00 | 0.00 | 30 | 1010.6 |
| 20260503215022 | 16 | 359 | 11.3 | 22.5 | 0.00 | 0.00 | 0.00 | 29 | 1010.6 |